Time,TemperatureF,DewpointF,PressureIn,WindDirection,WindDirectionDegrees,WindSpeedMPH,WindSpeedGustMPH,Humidity,HourlyPrecipIn,Conditions,Clouds,dailyrainin,SolarRadiationWatts/m^2,SoftwareType,DateUTC
2013-01-19 00:01:00,19.7,9.5,30.72,South,173,1.0,4.0,64,0.00,,,0.00,0,LWC V2.00 B727,2013-01-19 07:01:00,
2013-01-19 00:06:00,19.7,9.2,30.72,SSE,153,2.0,3.0,63,0.00,,,0.00,0,LWC V2.00 B727,2013-01-19 07:06:00,
2013-01-19 00:11:00,19.7,8.8,30.72,SSE,154,0.0,3.0,62,0.00,,,0.00,0,LWC V2.00 B727,2013-01-19 07:11:00,
2013-01-19 00:16:00,19.7,8.8,30.72,SSE,153,0.0,2.0,62,0.00,,,0.00,0,LWC V2.00 B727,2013-01-19 07:16:00,
2013-01-19 00:21:00,19.7,8.8,30.72,SSE,153,2.0,3.0,62,0.00,,,0.00,0,LWC V2.00 B727,2013-01-19 07:21:00,
2013-01-19 00:26:00,19.7,8.1,30.72,SSE,153,0.0,3.0,60,0.00,,,0.00,0,LWC V2.00 B727,2013-01-19 07:26:00,
2013-01-19 00:31:00,19.7,7.7,30.73,SSE,152,2.0,2.0,59,0.00,,,0.00,0,LWC V2.00 B727,2013-01-19 07:31:00,
2013-01-19 00:36:00,19.6,7.3,30.73,SSE,153,1.0,4.0,58,0.00,,,0.00,0,LWC V2.00 B727,2013-01-19 07:36:00,
2013-01-19 00:41:00,19.3,7.0,30.73,SSE,155,0.0,2.0,58,0.00,,,0.00,0,LWC V2.00 B727,2013-01-19 07:41:00,
2013-01-19 00:46:00,19.0,6.7,30.73,SSE,156,2.0,5.0,58,0.00,,,0.00,0,LWC V2.00 B727,2013-01-19 07:46:00,
2013-01-19 00:51:00,18.8,6.5,30.73,SSE,159,2.0,4.0,58,0.00,,,0.00,0,LWC V2.00 B727,2013-01-19 07:51:00,
2013-01-19 00:56:00,18.7,6.4,30.73,South,170,1.0,3.0,58,0.00,,,0.00,0,LWC V2.00 B727,2013-01-19 07:56:00,
2013-01-19 01:01:00,18.5,6.2,30.73,SSE,150,1.0,3.0,58,0.00,,,0.00,0,LWC V2.00 B727,2013-01-19 08:01:00,
2013-01-19 01:06:00,18.4,6.1,30.74,SSE,153,3.0,4.0,58,0.00,,,0.00,0,LWC V2.00 B727,2013-01-19 08:06:00,
2013-01-19 01:11:00,18.4,6.1,30.74,SSE,152,1.0,4.0,58,0.00,,,0.00,0,LWC V2.00 B727,2013-01-19 08:11:00,
2013-01-19 01:16:00,18.4,6.5,30.73,SSE,149,2.0,4.0,59,0.00,,,0.00,0,LWC V2.00 B727,2013-01-19 08:16:00,
2013-01-19 01:21:00,18.4,6.5,30.74,SSE,151,3.0,4.0,59,0.00,,,0.00,0,LWC V2.00 B727,2013-01-19 08:21:00,
2013-01-19 01:26:00,18.5,6.6,30.74,SSE,156,1.0,4.0,59,0.00,,,0.00,0,LWC V2.00 B727,2013-01-19 08:26:00,
2013-01-19 01:31:00,18.5,6.6,30.74,SSE,159,2.0,4.0,59,0.00,,,0.00,0,LWC V2.00 B727,2013-01-19 08:31:00,
2013-01-19 01:36:00,18.6,6.7,30.74,SSE,159,2.0,3.0,59,0.00,,,0.00,0,LWC V2.00 B727,2013-01-19 08:36:00,
2013-01-19 01:41:00,18.7,6.8,30.74,SSE,157,1.0,3.0,59,0.00,,,0.00,0,LWC V2.00 B727,2013-01-19 08:41:00,
2013-01-19 01:46:00,18.7,6.4,30.75,SSE,155,3.0,4.0,58,0.00,,,0.00,0,LWC V2.00 B727,2013-01-19 08:46:00,
2013-01-19 01:51:00,18.8,6.9,30.74,SSE,153,1.0,3.0,59,0.00,,,0.00,0,LWC V2.00 B727,2013-01-19 08:51:00,
2013-01-19 01:56:00,18.8,6.9,30.74,SSE,157,2.0,5.0,59,0.00,,,0.00,0,LWC V2.00 B727,2013-01-19 08:56:00,
2013-01-19 02:01:00,18.8,6.9,30.74,SSE,157,3.0,4.0,59,0.00,,,0.00,0,LWC V2.00 B727,2013-01-19 09:01:00,
2013-01-19 02:06:00,18.6,6.7,30.75,SSE,150,0.0,3.0,59,0.00,,,0.00,0,LWC V2.00 B727,2013-01-19 09:06:00,
2013-01-19 02:11:00,18.6,7.1,30.74,SSE,150,1.0,3.0,60,0.00,,,0.00,0,LWC V2.00 B727,2013-01-19 09:11:00,
2013-01-19 02:16:00,18.5,7.0,30.75,SSE,150,2.0,4.0,60,0.00,,,0.00,0,LWC V2.00 B727,2013-01-19 09:16:00,
2013-01-19 02:21:00,18.5,7.0,30.74,SSE,154,2.0,3.0,60,0.00,,,0.00,0,LWC V2.00 B727,2013-01-19 09:21:00,
2013-01-19 02:26:00,18.5,6.6,30.74,SE,145,1.0,3.0,59,0.00,,,0.00,0,LWC V2.00 B727,2013-01-19 09:26:00,
2013-01-19 02:31:00,18.5,7.0,30.74,SSE,147,2.0,4.0,60,0.00,,,0.00,0,LWC V2.00 B727,2013-01-19 09:31:00,
2013-01-19 02:36:00,18.6,7.4,30.74,SSE,156,0.0,3.0,61,0.00,,,0.00,0,LWC V2.00 B727,2013-01-19 09:36:00,
2013-01-19 02:41:00,18.6,7.4,30.75,SSE,155,3.0,3.0,61,0.00,,,0.00,0,LWC V2.00 B727,2013-01-19 09:41:00,
2013-01-19 02:46:00,18.7,7.5,30.75,SSE,159,4.0,4.0,61,0.00,,,0.00,0,LWC V2.00 B727,2013-01-19 09:46:00,
2013-01-19 02:51:00,18.7,7.5,30.75,SSE,156,1.0,3.0,61,0.00,,,0.00,0,LWC V2.00 B727,2013-01-19 09:51:00,
2013-01-19 02:56:00,18.6,7.4,30.75,SSE,155,2.0,3.0,61,0.00,,,0.00,0,LWC V2.00 B727,2013-01-19 09:56:00,
2013-01-19 03:01:00,18.5,7.3,30.75,SSE,153,1.0,4.0,61,0.00,,,0.00,0,LWC V2.00 B727,2013-01-19 10:01:00,
2013-01-19 03:06:00,18.6,7.4,30.75,SSE,153,0.0,3.0,61,0.00,,,0.00,0,LWC V2.00 B727,2013-01-19 10:06:00,
2013-01-19 03:11:00,18.6,7.8,30.75,SSE,155,2.0,3.0,62,0.00,,,0.00,0,LWC V2.00 B727,2013-01-19 10:11:00,
2013-01-19 03:16:00,18.6,7.4,30.75,SSE,157,1.0,4.0,61,0.00,,,0.00,0,LWC V2.00 B727,2013-01-19 10:16:00,
2013-01-19 03:21:00,18.6,7.4,30.75,SSE,161,2.0,4.0,61,0.00,,,0.00,0,LWC V2.00 B727,2013-01-19 10:21:00,
2013-01-19 03:26:00,18.6,7.8,30.75,SSE,155,1.0,3.0,62,0.00,,,0.00,0,LWC V2.00 B727,2013-01-19 10:26:00,
2013-01-19 03:31:00,18.6,7.8,30.75,SE,143,2.0,3.0,62,0.00,,,0.00,0,LWC V2.00 B727,2013-01-19 10:31:00,
2013-01-19 03:36:00,18.6,7.8,30.75,SSE,150,2.0,4.0,62,0.00,,,0.00,0,LWC V2.00 B727,2013-01-19 10:36:00,
2013-01-19 03:41:00,18.5,7.7,30.75,SSE,153,1.0,3.0,62,0.00,,,0.00,0,LWC V2.00 B727,2013-01-19 10:41:00,
2013-01-19 03:46:00,18.4,7.9,30.75,SSE,156,1.0,3.0,63,0.00,,,0.00,0,LWC V2.00 B727,2013-01-19 10:46:00,
2013-01-19 03:51:00,18.3,7.8,30.74,SSE,155,4.0,4.0,63,0.00,,,0.00,0,LWC V2.00 B727,2013-01-19 10:51:00,
2013-01-19 03:56:00,18.2,8.1,30.74,SSE,149,3.0,3.0,64,0.00,,,0.00,0,LWC V2.00 B727,2013-01-19 10:56:00,
2013-01-19 04:01:00,18.2,8.4,30.75,SSE,150,1.0,4.0,65,0.00,,,0.00,0,LWC V2.00 B727,2013-01-19 11:01:00,
2013-01-19 04:06:00,18.3,8.5,30.75,SSE,150,2.0,3.0,65,0.00,,,0.00,0,LWC V2.00 B727,2013-01-19 11:06:00,
2013-01-19 04:10:00,18.3,8.5,30.75,SSE,149,2.0,5.0,65,0.00,,,0.00,0,LWC V2.00 B727,2013-01-19 11:10:00,
2013-01-19 04:11:00,18.3,8.2,30.74,SSE,161,4.0,5.0,64,0.00,,,0.00,0,LWC V2.00 B727,2013-01-19 11:11:00,
2013-01-19 04:20:00,18.3,8.2,30.74,SSE,157,2.0,5.0,64,0.00,,,0.00,0,LWC V2.00 B727,2013-01-19 11:20:00,
2013-01-19 04:30:00,18.3,8.2,30.74,SSE,161,2.0,5.0,64,0.00,,,0.00,0,LWC V2.00 B727,2013-01-19 11:30:00,
2013-01-19 04:40:00,18.3,7.5,30.74,SE,144,1.0,5.0,62,0.00,,,0.00,0,LWC V2.00 B727,2013-01-19 11:40:00,
2013-01-19 04:50:00,17.9,7.1,30.74,SE,124,0.0,5.0,62,0.00,,,0.00,0,LWC V2.00 B727,2013-01-19 11:50:00,
2013-01-19 05:00:00,17.1,6.4,30.74,ESE,102,0.0,1.0,62,0.00,,,0.00,0,LWC V2.00 B727,2013-01-19 12:00:00,
2013-01-19 05:10:00,16.3,6.6,30.75,SE,125,1.0,3.0,65,0.00,,,0.00,0,LWC V2.00 B727,2013-01-19 12:10:00,
2013-01-19 05:20:00,16.3,7.0,30.75,SSE,155,1.0,3.0,66,0.00,,,0.00,0,LWC V2.00 B727,2013-01-19 12:20:00,
2013-01-19 05:30:00,16.4,6.7,30.75,SSE,155,2.0,5.0,65,0.00,,,0.00,0,LWC V2.00 B727,2013-01-19 12:30:00,
2013-01-19 05:48:00,17.0,6.6,30.76,South,171,1.0,3.0,63,0.00,,,0.00,0,LWC V2.00 B727,2013-01-19 12:48:00,
2013-01-19 05:51:00,17.0,6.6,30.76,SSE,156,1.0,2.0,63,0.00,,,0.00,0,LWC V2.00 B727,2013-01-19 12:51:00,
2013-01-19 05:56:00,16.9,6.2,30.76,SSE,158,0.0,2.0,62,0.00,,,0.00,0,LWC V2.00 B727,2013-01-19 12:56:00,
2013-01-19 06:01:00,16.8,6.1,30.77,SSE,159,0.0,4.0,62,0.00,,,0.00,0,LWC V2.00 B727,2013-01-19 13:01:00,
2013-01-19 06:06:00,16.8,6.1,30.77,SSE,159,3.0,3.0,62,0.00,,,0.00,0,LWC V2.00 B727,2013-01-19 13:06:00,
2013-01-19 06:11:00,16.7,5.6,30.77,SSE,159,1.0,3.0,61,0.00,,,0.00,0,LWC V2.00 B727,2013-01-19 13:11:00,
2013-01-19 06:16:00,16.6,5.5,30.77,SSE,159,3.0,4.0,61,0.00,,,0.00,0,LWC V2.00 B727,2013-01-19 13:16:00,
2013-01-19 06:21:00,16.5,5.4,30.76,SSW,196,4.0,6.0,61,0.00,,,0.00,0,LWC V2.00 B727,2013-01-19 13:21:00,
2013-01-19 06:26:00,16.6,5.5,30.77,South,175,2.0,3.0,61,0.00,,,0.00,0,LWC V2.00 B727,2013-01-19 13:26:00,
2013-01-19 06:31:00,16.6,5.2,30.77,SSE,164,2.0,3.0,60,0.00,,,0.00,0,LWC V2.00 B727,2013-01-19 13:31:00,
2013-01-19 06:36:00,16.7,5.3,30.77,SSE,164,1.0,1.0,60,0.00,,,0.00,0,LWC V2.00 B727,2013-01-19 13:36:00,
2013-01-19 06:41:00,16.7,4.5,30.77,SSE,164,2.0,4.0,58,0.00,,,0.00,0,LWC V2.00 B727,2013-01-19 13:41:00,
2013-01-19 06:46:00,16.7,4.5,30.77,SSE,164,3.0,3.0,58,0.00,,,0.00,0,LWC V2.00 B727,2013-01-19 13:46:00,
2013-01-19 06:51:00,16.9,5.1,30.77,South,177,1.0,4.0,59,0.00,,,0.00,0,LWC V2.00 B727,2013-01-19 13:51:00,
2013-01-19 06:56:00,17.0,4.8,30.77,SSE,167,1.0,3.0,58,0.00,,,0.00,0,LWC V2.00 B727,2013-01-19 13:56:00,
2013-01-19 07:01:00,17.0,4.4,30.78,SSE,166,0.0,1.0,57,0.00,,,0.00,0,LWC V2.00 B727,2013-01-19 14:01:00,
2013-01-19 07:06:00,17.0,4.4,30.78,SSE,167,1.0,2.0,57,0.00,,,0.00,0,LWC V2.00 B727,2013-01-19 14:06:00,
2013-01-19 07:11:00,17.0,4.4,30.78,SSE,166,2.0,3.0,57,0.00,,,0.00,5,LWC V2.00 B727,2013-01-19 14:11:00,
2013-01-19 07:16:00,17.1,3.7,30.78,SSE,167,1.0,3.0,55,0.00,,,0.00,5,LWC V2.00 B727,2013-01-19 14:16:00,
2013-01-19 07:21:00,17.2,3.8,30.78,SSE,163,0.0,2.0,55,0.00,,,0.00,7,LWC V2.00 B727,2013-01-19 14:21:00,
2013-01-19 07:26:00,17.2,3.4,30.77,SSE,161,2.0,3.0,54,0.00,,,0.00,9,LWC V2.00 B727,2013-01-19 14:26:00,
2013-01-19 07:31:00,17.2,3.0,30.77,SSE,157,0.0,0.0,53,0.00,,,0.00,11,LWC V2.00 B727,2013-01-19 14:31:00,
2013-01-19 07:36:00,17.2,3.0,30.78,SSE,157,0.0,1.0,53,0.00,,,0.00,12,LWC V2.00 B727,2013-01-19 14:36:00,
2013-01-19 07:41:00,17.2,2.6,30.78,SE,130,1.0,2.0,52,0.00,,,0.00,23,LWC V2.00 B727,2013-01-19 14:41:00,
2013-01-19 07:46:00,17.2,2.6,30.79,SE,130,0.0,2.0,52,0.00,,,0.00,47,LWC V2.00 B727,2013-01-19 14:46:00,
2013-01-19 07:51:00,17.5,2.5,30.79,ESE,117,0.0,1.0,51,0.00,,,0.00,100,LWC V2.00 B727,2013-01-19 14:51:00,
2013-01-19 07:56:00,18.0,3.0,30.79,SSE,157,1.0,5.0,51,0.00,,,0.00,105,LWC V2.00 B727,2013-01-19 14:56:00,
2013-01-19 08:01:00,19.0,3.5,30.79,SSE,154,0.0,2.0,50,0.00,,,0.00,144,LWC V2.00 B727,2013-01-19 15:01:00,
2013-01-19 08:06:00,19.7,4.1,30.80,SSE,154,0.0,0.0,50,0.00,,,0.00,155,LWC V2.00 B727,2013-01-19 15:06:00,
2013-01-19 08:11:00,20.1,4.0,30.80,SSE,154,0.0,1.0,49,0.00,,,0.00,199,LWC V2.00 B727,2013-01-19 15:11:00,
2013-01-19 08:16:00,21.0,4.4,30.80,SSE,163,0.0,3.0,48,0.00,,,0.00,137,LWC V2.00 B727,2013-01-19 15:16:00,
2013-01-19 08:21:00,21.8,5.2,30.80,SSE,163,0.0,0.0,48,0.00,,,0.00,239,LWC V2.00 B727,2013-01-19 15:21:00,
2013-01-19 08:26:00,22.3,4.7,30.80,SSE,163,0.0,0.0,46,0.00,,,0.00,262,LWC V2.00 B727,2013-01-19 15:26:00,
2013-01-19 08:31:00,22.9,4.8,30.80,SSE,164,2.0,3.0,45,0.00,,,0.00,278,LWC V2.00 B727,2013-01-19 15:31:00,
2013-01-19 08:36:00,23.3,5.6,30.80,SSE,164,0.0,1.0,46,0.00,,,0.00,297,LWC V2.00 B727,2013-01-19 15:36:00,
2013-01-19 08:41:00,23.6,5.9,30.80,SSE,164,2.0,3.0,46,0.00,,,0.00,315,LWC V2.00 B727,2013-01-19 15:41:00,
2013-01-19 08:46:00,24.1,6.3,30.80,SSE,164,0.0,1.0,46,0.00,,,0.00,332,LWC V2.00 B727,2013-01-19 15:46:00,
2013-01-19 08:51:00,24.4,7.1,30.81,SSE,164,0.0,1.0,47,0.00,,,0.00,348,LWC V2.00 B727,2013-01-19 15:51:00,
2013-01-19 08:56:00,24.7,7.4,30.81,SSE,164,0.0,1.0,47,0.00,,,0.00,362,LWC V2.00 B727,2013-01-19 15:56:00,
2013-01-19 09:01:00,25.2,7.4,30.81,SSE,164,1.0,3.0,46,0.00,,,0.00,376,LWC V2.00 B727,2013-01-19 16:01:00,
2013-01-19 09:06:00,25.9,8.0,30.82,SSE,163,0.0,2.0,46,0.00,,,0.00,394,LWC V2.00 B727,2013-01-19 16:06:00,
2013-01-19 09:11:00,26.5,8.1,30.82,SSE,163,0.0,1.0,45,0.00,,,0.00,411,LWC V2.00 B727,2013-01-19 16:11:00,
2013-01-19 09:16:00,27.2,8.7,30.82,SSE,163,0.0,0.0,45,0.00,,,0.00,427,LWC V2.00 B727,2013-01-19 16:16:00,
2013-01-19 09:21:00,27.8,8.8,30.82,SSE,163,0.0,0.0,44,0.00,,,0.00,443,LWC V2.00 B727,2013-01-19 16:21:00,
2013-01-19 09:26:00,28.5,9.4,30.83,SSE,163,0.0,0.0,44,0.00,,,0.00,459,LWC V2.00 B727,2013-01-19 16:26:00,
2013-01-19 09:31:00,29.2,9.5,30.83,SSE,163,0.0,2.0,43,0.00,,,0.00,471,LWC V2.00 B727,2013-01-19 16:31:00,
2013-01-19 09:36:00,29.9,10.7,30.83,SSE,163,0.0,1.0,44,0.00,,,0.00,483,LWC V2.00 B727,2013-01-19 16:36:00,
2013-01-19 09:41:00,30.6,11.3,30.83,SSE,163,0.0,0.0,44,0.00,,,0.00,497,LWC V2.00 B727,2013-01-19 16:41:00,
2013-01-19 09:46:00,31.0,11.2,30.83,SSE,163,1.0,1.0,43,0.00,,,0.00,510,LWC V2.00 B727,2013-01-19 16:46:00,
2013-01-19 09:51:00,31.5,12.1,30.83,SSE,163,0.0,0.0,44,0.00,,,0.00,522,LWC V2.00 B727,2013-01-19 16:51:00,
2013-01-19 09:56:00,31.8,12.4,30.83,SSE,163,1.0,2.0,44,0.00,,,0.00,534,LWC V2.00 B727,2013-01-19 16:56:00,
2013-01-19 10:01:00,32.1,14.2,30.83,SSE,161,1.0,2.0,47,0.00,,,0.00,545,LWC V2.00 B727,2013-01-19 17:01:00,
2013-01-19 10:06:00,32.4,14.0,30.83,SSE,157,3.0,3.0,46,0.00,,,0.00,554,LWC V2.00 B727,2013-01-19 17:06:00,
2013-01-19 10:11:00,32.5,14.5,30.83,East,98,2.0,3.0,47,0.00,,,0.00,566,LWC V2.00 B727,2013-01-19 17:11:00,
2013-01-19 10:16:00,32.7,15.2,30.83,NNE,32,0.0,0.0,48,0.00,,,0.00,577,LWC V2.00 B727,2013-01-19 17:16:00,
2013-01-19 10:21:00,33.0,14.5,30.83,NNE,31,0.0,1.0,46,0.00,,,0.00,589,LWC V2.00 B727,2013-01-19 17:21:00,
2013-01-19 10:26:00,33.4,14.9,30.83,NNE,30,0.0,2.0,46,0.00,,,0.00,599,LWC V2.00 B727,2013-01-19 17:26:00,
2013-01-19 10:31:00,34.4,15.3,30.83,NNE,30,0.0,1.0,45,0.00,,,0.00,610,LWC V2.00 B727,2013-01-19 17:31:00,
2013-01-19 10:36:00,35.3,15.1,30.83,NNE,30,2.0,3.0,43,0.00,,,0.00,619,LWC V2.00 B727,2013-01-19 17:36:00,
2013-01-19 10:41:00,36.0,15.2,30.83,NNE,30,0.0,0.0,42,0.00,,,0.00,629,LWC V2.00 B727,2013-01-19 17:41:00,
2013-01-19 10:46:00,36.6,16.2,30.82,NNE,30,0.0,0.0,43,0.00,,,0.00,640,LWC V2.00 B727,2013-01-19 17:46:00,
2013-01-19 10:51:00,37.4,12.9,30.82,West,271,0.0,2.0,36,0.00,,,0.00,649,LWC V2.00 B727,2013-01-19 17:51:00,
2013-01-19 10:57:00,37.9,13.4,30.82,West,271,2.0,2.0,36,0.00,,,0.00,654,LWC V2.00 B727,2013-01-19 17:57:00,
2013-01-19 11:02:00,38.3,13.1,30.81,West,268,0.0,0.0,35,0.00,,,0.00,664,LWC V2.00 B727,2013-01-19 18:02:00,
2013-01-19 11:07:00,38.9,14.9,30.81,West,267,0.0,1.0,37,0.00,,,0.00,670,LWC V2.00 B727,2013-01-19 18:07:00,
2013-01-19 11:12:00,39.5,17.2,30.80,West,267,0.0,1.0,40,0.00,,,0.00,679,LWC V2.00 B727,2013-01-19 18:12:00,
2013-01-19 11:17:00,39.4,18.8,30.80,West,267,0.0,1.0,43,0.00,,,0.00,682,LWC V2.00 B727,2013-01-19 18:17:00,
2013-01-19 11:22:00,38.9,18.9,30.80,West,273,0.0,1.0,44,0.00,,,0.00,684,LWC V2.00 B727,2013-01-19 18:22:00,
2013-01-19 11:27:00,38.7,17.6,30.80,West,272,0.0,0.0,42,0.00,,,0.00,689,LWC V2.00 B727,2013-01-19 18:27:00,
2013-01-19 11:32:00,39.2,16.9,30.79,West,272,0.0,0.0,40,0.00,,,0.00,693,LWC V2.00 B727,2013-01-19 18:32:00,
2013-01-19 11:37:00,39.7,17.4,30.79,West,272,0.0,1.0,40,0.00,,,0.00,698,LWC V2.00 B727,2013-01-19 18:37:00,
2013-01-19 11:42:00,40.4,18.0,30.78,SSE,168,0.0,3.0,40,0.00,,,0.00,703,LWC V2.00 B727,2013-01-19 18:42:00,
2013-01-19 11:47:00,41.4,17.7,30.78,SSE,168,0.0,2.0,38,0.00,,,0.00,707,LWC V2.00 B727,2013-01-19 18:47:00,
2013-01-19 11:52:00,42.1,17.7,30.78,SSE,167,0.0,0.0,37,0.00,,,0.00,708,LWC V2.00 B727,2013-01-19 18:52:00,
2013-01-19 11:57:00,42.4,16.7,30.77,South,172,0.0,4.0,35,0.00,,,0.00,710,LWC V2.00 B727,2013-01-19 18:57:00,
2013-01-19 12:02:00,42.8,16.4,30.77,North,0,3.0,4.0,34,0.00,,,0.00,714,LWC V2.00 B727,2013-01-19 19:02:00,
2013-01-19 12:07:00,42.9,16.5,30.77,WSW,249,1.0,4.0,34,0.00,,,0.00,714,LWC V2.00 B727,2013-01-19 19:07:00,
2013-01-19 12:12:00,42.9,16.5,30.76,West,259,1.0,6.0,34,0.00,,,0.00,712,LWC V2.00 B727,2013-01-19 19:12:00,
2013-01-19 12:17:00,42.8,16.4,30.76,SW,230,1.0,4.0,34,0.00,,,0.00,714,LWC V2.00 B727,2013-01-19 19:17:00,
2013-01-19 12:22:00,42.9,15.1,30.76,SW,228,0.0,2.0,32,0.00,,,0.00,714,LWC V2.00 B727,2013-01-19 19:22:00,
2013-01-19 12:27:00,43.0,15.9,30.76,SW,214,1.0,3.0,33,0.00,,,0.00,712,LWC V2.00 B727,2013-01-19 19:27:00,
2013-01-19 12:32:00,43.1,16.7,30.75,NW,315,1.0,1.0,34,0.00,,,0.00,710,LWC V2.00 B727,2013-01-19 19:32:00,
2013-01-19 12:37:00,43.2,15.4,30.75,NW,319,2.0,4.0,32,0.00,,,0.00,710,LWC V2.00 B727,2013-01-19 19:37:00,
2013-01-19 12:42:00,43.4,16.9,30.75,NW,319,0.0,3.0,34,0.00,,,0.00,705,LWC V2.00 B727,2013-01-19 19:42:00,
2013-01-19 12:47:00,43.6,17.1,30.75,West,261,1.0,3.0,34,0.00,,,0.00,705,LWC V2.00 B727,2013-01-19 19:47:00,
2013-01-19 12:52:00,44.0,15.3,30.75,NW,309,0.0,3.0,31,0.00,,,0.00,701,LWC V2.00 B727,2013-01-19 19:52:00,
2013-01-19 12:57:00,44.2,16.9,30.74,SW,236,2.0,5.0,33,0.00,,,0.00,700,LWC V2.00 B727,2013-01-19 19:57:00,
2013-01-19 13:02:00,44.4,16.4,30.74,NW,315,3.0,4.0,32,0.00,,,0.00,693,LWC V2.00 B727,2013-01-19 20:02:00,
2013-01-19 13:07:00,44.4,17.8,30.74,SW,225,0.0,6.0,34,0.00,,,0.00,689,LWC V2.00 B727,2013-01-19 20:07:00,
2013-01-19 13:12:00,44.4,17.1,30.74,WSW,257,5.0,5.0,33,0.00,,,0.00,682,LWC V2.00 B727,2013-01-19 20:12:00,
2013-01-19 13:17:00,44.6,18.0,30.74,NNE,23,1.0,5.0,34,0.00,,,0.00,677,LWC V2.00 B727,2013-01-19 20:17:00,
2013-01-19 13:22:00,45.0,16.2,30.74,West,271,1.0,4.0,31,0.00,,,0.00,673,LWC V2.00 B727,2013-01-19 20:22:00,
2013-01-19 13:27:00,45.1,17.0,30.74,SSW,206,1.0,3.0,32,0.00,,,0.00,668,LWC V2.00 B727,2013-01-19 20:27:00,
2013-01-19 13:33:00,45.2,16.4,30.74,SW,227,0.0,4.0,31,0.00,,,0.00,659,LWC V2.00 B727,2013-01-19 20:33:00,
2013-01-19 13:38:00,45.5,17.4,30.74,WSW,237,0.0,2.0,32,0.00,,,0.00,652,LWC V2.00 B727,2013-01-19 20:38:00,
2013-01-19 13:43:00,45.4,17.3,30.75,WSW,252,5.0,5.0,32,0.00,,,0.00,643,LWC V2.00 B727,2013-01-19 20:43:00,
2013-01-19 13:48:00,45.4,16.6,30.75,SW,215,6.0,6.0,31,0.00,,,0.00,635,LWC V2.00 B727,2013-01-19 20:48:00,
2013-01-19 13:53:00,45.3,15.7,30.74,South,191,0.0,6.0,30,0.00,,,0.00,626,LWC V2.00 B727,2013-01-19 20:53:00,
2013-01-19 13:58:00,45.3,17.2,30.75,South,182,2.0,2.0,32,0.00,,,0.00,615,LWC V2.00 B727,2013-01-19 20:58:00,
2013-01-19 14:03:00,45.3,16.5,30.75,WSW,241,2.0,7.0,31,0.00,,,0.00,608,LWC V2.00 B727,2013-01-19 21:03:00,
2013-01-19 14:08:00,45.3,15.7,30.75,WSW,241,1.0,1.0,30,0.00,,,0.00,601,LWC V2.00 B727,2013-01-19 21:08:00,
2013-01-19 14:13:00,45.6,16.0,30.75,NNW,329,0.0,4.0,30,0.00,,,0.00,591,LWC V2.00 B727,2013-01-19 21:13:00,
2013-01-19 14:18:00,45.7,16.1,30.75,NNW,327,0.0,1.0,30,0.00,,,0.00,578,LWC V2.00 B727,2013-01-19 21:18:00,
2013-01-19 14:23:00,46.0,17.1,30.74,WSW,241,1.0,3.0,31,0.00,,,0.00,566,LWC V2.00 B727,2013-01-19 21:23:00,
2013-01-19 14:28:00,46.2,15.7,30.74,WSW,241,0.0,1.0,29,0.00,,,0.00,555,LWC V2.00 B727,2013-01-19 21:28:00,
2013-01-19 14:33:00,46.2,14.9,30.75,NW,325,0.0,3.0,28,0.00,,,0.00,543,LWC V2.00 B727,2013-01-19 21:33:00,
2013-01-19 14:38:00,46.2,17.3,30.75,SSW,211,1.0,5.0,31,0.00,,,0.00,533,LWC V2.00 B727,2013-01-19 21:38:00,
2013-01-19 14:43:00,46.1,16.4,30.75,WSW,242,4.0,4.0,30,0.00,,,0.00,524,LWC V2.00 B727,2013-01-19 21:43:00,
2013-01-19 14:48:00,46.2,14.1,30.75,SW,232,0.0,2.0,27,0.00,,,0.00,512,LWC V2.00 B727,2013-01-19 21:48:00,
2013-01-19 14:53:00,46.3,15.8,30.75,SW,232,0.0,1.0,29,0.00,,,0.00,503,LWC V2.00 B727,2013-01-19 21:53:00,
2013-01-19 14:58:00,45.9,14.7,30.75,WNW,302,1.0,3.0,28,0.00,,,0.00,483,LWC V2.00 B727,2013-01-19 21:58:00,
2013-01-19 15:03:00,45.3,14.1,30.75,NW,304,0.0,2.0,28,0.00,,,0.00,469,LWC V2.00 B727,2013-01-19 22:03:00,
2013-01-19 15:08:00,45.4,15.8,30.75,WNW,303,0.0,1.0,30,0.00,,,0.00,457,LWC V2.00 B727,2013-01-19 22:08:00,
2013-01-19 15:13:00,45.1,14.8,30.75,WNW,303,0.0,0.0,29,0.00,,,0.00,439,LWC V2.00 B727,2013-01-19 22:13:00,
2013-01-19 15:18:00,44.7,15.9,30.75,WNW,303,0.0,1.0,31,0.00,,,0.00,427,LWC V2.00 B727,2013-01-19 22:18:00,
2013-01-19 15:23:00,44.4,15.7,30.75,WNW,303,0.0,0.0,31,0.00,,,0.00,411,LWC V2.00 B727,2013-01-19 22:23:00,
2013-01-19 15:28:00,44.9,16.1,30.75,WNW,303,0.0,1.0,31,0.00,,,0.00,397,LWC V2.00 B727,2013-01-19 22:28:00,
2013-01-19 15:33:00,45.3,16.5,30.75,NW,313,1.0,3.0,31,0.00,,,0.00,381,LWC V2.00 B727,2013-01-19 22:33:00,
2013-01-19 15:38:00,45.6,16.0,30.75,WSW,256,1.0,3.0,30,0.00,,,0.00,366,LWC V2.00 B727,2013-01-19 22:38:00,
2013-01-19 15:43:00,45.6,15.2,30.76,WSW,256,0.0,0.0,29,0.00,,,0.00,348,LWC V2.00 B727,2013-01-19 22:43:00,
2013-01-19 15:48:00,45.5,14.3,30.76,North,11,1.0,1.0,28,0.00,,,0.00,330,LWC V2.00 B727,2013-01-19 22:48:00,
2013-01-19 15:53:00,45.3,14.9,30.76,SW,229,3.0,4.0,29,0.00,,,0.00,315,LWC V2.00 B727,2013-01-19 22:53:00,
2013-01-19 15:58:00,45.2,14.1,30.76,NW,317,0.0,3.0,28,0.00,,,0.00,294,LWC V2.00 B727,2013-01-19 22:58:00,
2013-01-19 16:03:00,44.6,14.3,30.76,NW,317,0.0,0.0,29,0.00,,,0.00,272,LWC V2.00 B727,2013-01-19 23:03:00,
2013-01-19 16:08:00,44.0,14.6,30.75,NW,317,0.0,1.0,30,0.00,,,0.00,250,LWC V2.00 B727,2013-01-19 23:08:00,
2013-01-19 16:13:00,43.6,13.5,30.76,NW,317,0.0,0.0,29,0.00,,,0.00,195,LWC V2.00 B727,2013-01-19 23:13:00,
2013-01-19 16:18:00,43.5,14.1,30.76,NW,317,0.0,0.0,30,0.00,,,0.00,25,LWC V2.00 B727,2013-01-19 23:18:00,
2013-01-19 16:23:00,43.1,13.8,30.76,NW,317,0.0,0.0,30,0.00,,,0.00,21,LWC V2.00 B727,2013-01-19 23:23:00,
2013-01-19 16:28:00,42.4,13.2,30.76,NW,317,0.0,0.0,30,0.00,,,0.00,21,LWC V2.00 B727,2013-01-19 23:28:00,
2013-01-19 16:33:00,41.9,13.5,30.76,NW,317,0.0,0.0,31,0.00,,,0.00,19,LWC V2.00 B727,2013-01-19 23:33:00,
2013-01-19 16:38:00,41.3,14.4,30.76,NW,317,0.0,0.0,33,0.00,,,0.00,19,LWC V2.00 B727,2013-01-19 23:38:00,
2013-01-19 16:43:00,40.3,14.8,30.76,NW,317,0.0,1.0,35,0.00,,,0.00,18,LWC V2.00 B727,2013-01-19 23:43:00,
2013-01-19 16:48:00,39.7,15.6,30.76,NW,317,0.0,0.0,37,0.00,,,0.00,16,LWC V2.00 B727,2013-01-19 23:48:00,
2013-01-19 16:53:00,39.2,16.3,30.76,NW,317,0.0,1.0,39,0.00,,,0.00,14,LWC V2.00 B727,2013-01-19 23:53:00,
2013-01-19 16:58:00,38.7,17.0,30.77,NW,317,0.0,2.0,41,0.00,,,0.00,11,LWC V2.00 B727,2013-01-19 23:58:00,
2013-01-19 17:03:00,38.0,15.3,30.76,NW,317,0.0,1.0,39,0.00,,,0.00,11,LWC V2.00 B727,2013-01-20 00:03:00,
2013-01-19 17:08:00,37.0,14.4,30.77,South,171,0.0,2.0,39,0.00,,,0.00,9,LWC V2.00 B727,2013-01-20 00:08:00,
2013-01-19 17:13:00,35.9,14.5,30.77,South,169,0.0,2.0,41,0.00,,,0.00,7,LWC V2.00 B727,2013-01-20 00:13:00,
2013-01-19 17:18:00,34.9,13.6,30.77,SSE,161,1.0,3.0,41,0.00,,,0.00,5,LWC V2.00 B727,2013-01-20 00:18:00,
2013-01-19 17:23:00,34.1,13.4,30.77,SSE,153,1.0,2.0,42,0.00,,,0.00,0,LWC V2.00 B727,2013-01-20 00:23:00,
2013-01-19 17:28:00,33.3,13.2,30.77,SSE,155,1.0,4.0,43,0.00,,,0.00,0,LWC V2.00 B727,2013-01-20 00:28:00,
2013-01-19 17:33:00,32.6,13.1,30.77,SSE,155,0.0,3.0,44,0.00,,,0.00,0,LWC V2.00 B727,2013-01-20 00:33:00,
2013-01-19 17:38:00,31.9,13.0,30.77,SSE,159,2.0,3.0,45,0.00,,,0.00,0,LWC V2.00 B727,2013-01-20 00:38:00,
2013-01-19 17:43:00,31.2,12.4,30.78,SE,146,1.0,5.0,45,0.00,,,0.00,0,LWC V2.00 B727,2013-01-20 00:43:00,
2013-01-19 17:48:00,30.7,12.4,30.78,SSE,154,2.0,3.0,46,0.00,,,0.00,0,LWC V2.00 B727,2013-01-20 00:48:00,
2013-01-19 17:53:00,30.2,11.9,30.78,SSE,156,2.0,4.0,46,0.00,,,0.00,0,LWC V2.00 B727,2013-01-20 00:53:00,
2013-01-19 17:58:00,29.8,12.1,30.78,SSE,159,3.0,3.0,47,0.00,,,0.00,0,LWC V2.00 B727,2013-01-20 00:58:00,
2013-01-19 18:03:00,29.4,12.2,30.78,SSE,159,2.0,4.0,48,0.00,,,0.00,0,LWC V2.00 B727,2013-01-20 01:03:00,
2013-01-19 18:08:00,28.9,11.7,30.78,South,173,3.0,4.0,48,0.00,,,0.00,0,LWC V2.00 B727,2013-01-20 01:08:00,
2013-01-19 18:13:00,28.5,11.8,30.78,South,178,2.0,5.0,49,0.00,,,0.00,0,LWC V2.00 B727,2013-01-20 01:13:00,
2013-01-19 18:18:00,28.2,11.5,30.78,SE,145,0.0,5.0,49,0.00,,,0.00,0,LWC V2.00 B727,2013-01-20 01:18:00,
2013-01-19 18:23:00,28.0,11.3,30.78,SSE,162,3.0,5.0,49,0.00,,,0.00,0,LWC V2.00 B727,2013-01-20 01:23:00,
2013-01-19 18:28:00,27.8,11.6,30.78,SSE,156,3.0,4.0,50,0.00,,,0.00,0,LWC V2.00 B727,2013-01-20 01:28:00,
2013-01-19 18:33:00,27.7,11.1,30.78,SSE,157,2.0,4.0,49,0.00,,,0.00,0,LWC V2.00 B727,2013-01-20 01:33:00,
2013-01-19 18:38:00,27.7,11.1,30.78,SSE,150,3.0,3.0,49,0.00,,,0.00,0,LWC V2.00 B727,2013-01-20 01:38:00,
2013-01-19 18:43:00,27.5,10.9,30.78,SSE,155,3.0,5.0,49,0.00,,,0.00,0,LWC V2.00 B727,2013-01-20 01:43:00,
2013-01-19 18:48:00,27.5,11.3,30.79,South,178,3.0,6.0,50,0.00,,,0.00,0,LWC V2.00 B727,2013-01-20 01:48:00,
2013-01-19 18:53:00,27.3,11.1,30.79,South,175,4.0,5.0,50,0.00,,,0.00,0,LWC V2.00 B727,2013-01-20 01:53:00,
2013-01-19 18:58:00,27.1,11.0,30.79,South,179,3.0,6.0,50,0.00,,,0.00,0,LWC V2.00 B727,2013-01-20 01:58:00,
2013-01-19 19:03:00,27.0,10.9,30.79,SSE,165,0.0,4.0,50,0.00,,,0.00,0,LWC V2.00 B727,2013-01-20 02:03:00,
2013-01-19 19:08:00,26.9,10.3,30.79,SSE,167,2.0,4.0,49,0.00,,,0.00,0,LWC V2.00 B727,2013-01-20 02:08:00,
2013-01-19 19:13:00,26.7,10.6,30.79,SSE,167,1.0,3.0,50,0.00,,,0.00,0,LWC V2.00 B727,2013-01-20 02:13:00,
2013-01-19 19:18:00,26.5,10.4,30.79,SSE,163,1.0,4.0,50,0.00,,,0.00,0,LWC V2.00 B727,2013-01-20 02:18:00,
2013-01-19 19:23:00,26.3,10.2,30.79,South,169,2.0,4.0,50,0.00,,,0.00,0,LWC V2.00 B727,2013-01-20 02:23:00,
2013-01-19 19:28:00,26.2,9.7,30.79,SSE,148,0.0,4.0,49,0.00,,,0.00,0,LWC V2.00 B727,2013-01-20 02:28:00,
2013-01-19 19:33:00,26.2,9.7,30.79,SSE,162,3.0,5.0,49,0.00,,,0.00,0,LWC V2.00 B727,2013-01-20 02:33:00,
2013-01-19 19:38:00,26.2,9.2,30.79,South,172,3.0,3.0,48,0.00,,,0.00,0,LWC V2.00 B727,2013-01-20 02:38:00,
2013-01-19 19:43:00,26.1,9.1,30.80,SSE,168,1.0,3.0,48,0.00,,,0.00,0,LWC V2.00 B727,2013-01-20 02:43:00,
2013-01-19 19:48:00,26.0,9.0,30.80,SSE,166,0.0,5.0,48,0.00,,,0.00,0,LWC V2.00 B727,2013-01-20 02:48:00,
2013-01-19 19:53:00,26.0,9.0,30.80,South,175,2.0,3.0,48,0.00,,,0.00,0,LWC V2.00 B727,2013-01-20 02:53:00,
2013-01-19 19:58:00,25.8,8.8,30.80,SSE,161,2.0,3.0,48,0.00,,,0.00,0,LWC V2.00 B727,2013-01-20 02:58:00,
2013-01-19 20:03:00,25.7,8.8,30.80,South,169,1.0,2.0,48,0.00,,,0.00,0,LWC V2.00 B727,2013-01-20 03:03:00,
2013-01-19 20:08:00,25.5,8.6,30.80,South,172,2.0,4.0,48,0.00,,,0.00,0,LWC V2.00 B727,2013-01-20 03:08:00,
2013-01-19 20:13:00,25.3,8.4,30.80,South,179,4.0,4.0,48,0.00,,,0.00,0,LWC V2.00 B727,2013-01-20 03:13:00,
2013-01-19 20:18:00,25.1,8.2,30.80,SSE,160,0.0,3.0,48,0.00,,,0.00,0,LWC V2.00 B727,2013-01-20 03:18:00,
2013-01-19 20:23:00,25.0,8.1,30.80,SSE,167,2.0,4.0,48,0.00,,,0.00,0,LWC V2.00 B727,2013-01-20 03:23:00,
2013-01-19 20:28:00,24.8,8.4,30.80,South,169,5.0,5.0,49,0.00,,,0.00,0,LWC V2.00 B727,2013-01-20 03:28:00,
2013-01-19 20:33:00,24.7,7.8,30.80,SSE,156,0.0,4.0,48,0.00,,,0.00,0,LWC V2.00 B727,2013-01-20 03:33:00,
2013-01-19 20:38:00,24.6,8.2,30.80,SSE,161,1.0,3.0,49,0.00,,,0.00,0,LWC V2.00 B727,2013-01-20 03:38:00,
2013-01-19 20:43:00,24.6,8.2,30.80,SSE,163,0.0,2.0,49,0.00,,,0.00,0,LWC V2.00 B727,2013-01-20 03:43:00,
2013-01-19 20:48:00,24.5,8.1,30.80,SSE,167,1.0,5.0,49,0.00,,,0.00,0,LWC V2.00 B727,2013-01-20 03:48:00,
2013-01-19 20:53:00,24.4,8.0,30.80,SSE,161,3.0,4.0,49,0.00,,,0.00,0,LWC V2.00 B727,2013-01-20 03:53:00,
2013-01-19 20:58:00,24.4,8.0,30.80,SE,143,3.0,3.0,49,0.00,,,0.00,0,LWC V2.00 B727,2013-01-20 03:58:00,
2013-01-19 21:03:00,24.3,7.9,30.80,SE,145,3.0,3.0,49,0.00,,,0.00,0,LWC V2.00 B727,2013-01-20 04:03:00,
2013-01-19 21:08:00,24.3,7.9,30.80,SSE,149,5.0,5.0,49,0.00,,,0.00,0,LWC V2.00 B727,2013-01-20 04:08:00,
2013-01-19 21:13:00,24.2,7.8,30.80,SSE,162,3.0,5.0,49,0.00,,,0.00,0,LWC V2.00 B727,2013-01-20 04:13:00,
2013-01-19 21:18:00,24.1,7.7,30.81,SSE,166,2.0,7.0,49,0.00,,,0.00,0,LWC V2.00 B727,2013-01-20 04:18:00,
2013-01-19 21:23:00,24.0,7.6,30.80,SSE,168,3.0,5.0,49,0.00,,,0.00,0,LWC V2.00 B727,2013-01-20 04:23:00,
2013-01-19 21:28:00,24.0,7.6,30.81,SSE,159,1.0,4.0,49,0.00,,,0.00,0,LWC V2.00 B727,2013-01-20 04:28:00,
2013-01-19 21:33:00,23.9,8.0,30.81,SSE,161,2.0,5.0,50,0.00,,,0.00,0,LWC V2.00 B727,2013-01-20 04:33:00,
2013-01-19 21:38:00,23.9,8.0,30.81,SE,141,3.0,4.0,50,0.00,,,0.00,0,LWC V2.00 B727,2013-01-20 04:38:00,
2013-01-19 21:43:00,23.7,7.4,30.81,SSE,159,3.0,3.0,49,0.00,,,0.00,0,LWC V2.00 B727,2013-01-20 04:43:00,
2013-01-19 21:48:00,23.7,7.4,30.81,SSE,155,3.0,4.0,49,0.00,,,0.00,0,LWC V2.00 B727,2013-01-20 04:48:00,
2013-01-19 21:53:00,23.7,7.4,30.81,SSE,156,1.0,6.0,49,0.00,,,0.00,0,LWC V2.00 B727,2013-01-20 04:53:00,
2013-01-19 21:58:00,23.8,7.5,30.81,South,169,2.0,4.0,49,0.00,,,0.00,0,LWC V2.00 B727,2013-01-20 04:58:00,
2013-01-19 22:00:00,23.8,7.0,30.81,South,169,3.0,5.0,48,0.00,,,0.00,0,LWC V2.00 B727,2013-01-20 05:00:00,
2013-01-19 22:05:00,23.9,7.1,30.81,South,171,3.0,7.0,48,0.00,,,0.00,0,LWC V2.00 B727,2013-01-20 05:05:00,
2013-01-19 22:10:00,24.0,7.2,30.81,South,179,3.0,4.0,48,0.00,,,0.00,0,LWC V2.00 B727,2013-01-20 05:10:00,
2013-01-19 22:15:00,24.0,7.2,30.81,SSE,155,3.0,5.0,48,0.00,,,0.00,0,LWC V2.00 B727,2013-01-20 05:15:00,
2013-01-19 22:20:00,23.9,6.6,30.81,South,169,2.0,4.0,47,0.00,,,0.00,0,LWC V2.00 B727,2013-01-20 05:20:00,
2013-01-19 22:25:00,23.8,7.0,30.81,SSE,160,2.0,5.0,48,0.00,,,0.00,0,LWC V2.00 B727,2013-01-20 05:25:00,
2013-01-19 22:30:00,23.7,6.9,30.81,SSE,161,2.0,5.0,48,0.00,,,0.00,0,LWC V2.00 B727,2013-01-20 05:30:00,
2013-01-19 22:35:00,23.6,6.8,30.81,SSE,165,3.0,4.0,48,0.00,,,0.00,0,LWC V2.00 B727,2013-01-20 05:35:00,
2013-01-19 22:40:00,23.5,6.7,30.80,South,175,3.0,4.0,48,0.00,,,0.00,0,LWC V2.00 B727,2013-01-20 05:40:00,
2013-01-19 22:45:00,23.3,7.0,30.81,SSE,165,3.0,4.0,49,0.00,,,0.00,0,LWC V2.00 B727,2013-01-20 05:45:00,
2013-01-19 22:46:00,23.2,6.9,30.80,SSE,167,3.0,5.0,49,0.00,,,0.00,0,LWC V2.00 B727,2013-01-20 05:46:00,
2013-01-19 22:51:00,23.0,6.7,30.80,SSE,154,1.0,5.0,49,0.00,,,0.00,0,LWC V2.00 B727,2013-01-20 05:51:00,
2013-01-19 22:56:00,22.9,6.6,30.81,SSE,164,2.0,5.0,49,0.00,,,0.00,0,LWC V2.00 B727,2013-01-20 05:56:00,
2013-01-19 23:01:00,22.9,6.6,30.81,SSE,165,2.0,3.0,49,0.00,,,0.00,0,LWC V2.00 B727,2013-01-20 06:01:00,
2013-01-19 23:06:00,22.9,6.6,30.81,SE,130,1.0,3.0,49,0.00,,,0.00,0,LWC V2.00 B727,2013-01-20 06:06:00,
2013-01-19 23:11:00,22.9,6.6,30.81,South,169,2.0,4.0,49,0.00,,,0.00,0,LWC V2.00 B727,2013-01-20 06:11:00,
2013-01-19 23:16:00,22.8,6.5,30.81,South,171,2.0,4.0,49,0.00,,,0.00,0,LWC V2.00 B727,2013-01-20 06:16:00,
2013-01-19 23:21:00,22.7,6.4,30.80,South,169,3.0,4.0,49,0.00,,,0.00,0,LWC V2.00 B727,2013-01-20 06:21:00,
2013-01-19 23:26:00,22.6,6.8,30.80,South,171,1.0,5.0,50,0.00,,,0.00,0,LWC V2.00 B727,2013-01-20 06:26:00,
2013-01-19 23:31:00,22.5,6.7,30.80,South,172,3.0,5.0,50,0.00,,,0.00,0,LWC V2.00 B727,2013-01-20 06:31:00,
2013-01-19 23:36:00,22.4,6.6,30.80,SSE,149,3.0,4.0,50,0.00,,,0.00,0,LWC V2.00 B727,2013-01-20 06:36:00,
2013-01-19 23:41:00,22.4,6.2,30.80,SE,145,1.0,3.0,49,0.00,,,0.00,0,LWC V2.00 B727,2013-01-20 06:41:00,
2013-01-19 23:46:00,22.3,6.5,30.80,SSE,154,2.0,3.0,50,0.00,,,0.00,0,LWC V2.00 B727,2013-01-20 06:46:00,
2013-01-19 23:51:00,22.2,6.4,30.80,SSE,165,4.0,4.0,50,0.00,,,0.00,0,LWC V2.00 B727,2013-01-20 06:51:00,
2013-01-19 23:56:00,22.2,6.4,30.79,SSE,161,2.0,3.0,50,0.00,,,0.00,0,LWC V2.00 B727,2013-01-20 06:56:00,